Manhattan, KS

8:50 AM CDT on May 28, 2017 (GMT -0500)
Manhattan Regional

Weather History for KMHK - September, 2011

Change the Weather History Date:

Monday, September 5, 2011

  Actual Average Record
Temperature  
Mean Temperature 60 °F 72 °F  
Max Temperature 75 °F 85 °F 97 °F (2002)
Min Temperature 46 °F 59 °F 46 °F (2008)
Degree Days  
Heating Degree Days 4 0  
Month to date heating degree days 0  
Since 1 July heating degree days 3  
Cooling Degree Days 0 8  
Month to date cooling degree days 42  
Year to date cooling degree days 1225  
Growing Degree Days 10 (Base 50)    
Moisture  
Dew Point 43 °F    
Average Humidity 57    
Maximum Humidity 89    
Minimum Humidity 27    
Precipitation  
Precipitation 0.00 in 0.15 in 0.73 in (2004)
Month to date precipitation 0.76  
Year to date precipitation 25.30  
Sea Level Pressure  
Sea Level Pressure 30.17 in    
Wind  
Wind Speed 3 mph (ENE)    
Max Wind Speed 12 mph    
Max Gust Speed 18 mph    
Visibility 10 miles    
Events      
T = Trace of Precipitation, MM = Missing Value Source: NWS Daily Summary

Daily Weather History Graph

Daily Weather History Graph

Search for Another Location

Airport or City:

Trip Planner

Search our weather history database for the weather conditions in past years. The results will help you decide how hot, cold, wet, or windy it might be!

Date:

Astronomy

Sep. 05, 2011 Rise Set
Actual Time 6:58 AM CDT 7:51 PM CDT
Civil Twilight 6:31 AM CDT 8:18 PM CDT
Nautical Twilight 5:59 AM CDT 8:50 PM CDT
Astronomical Twilight 5:25 AM CDT 9:24 PM CDT
Moon 3:36 PM CDT (9/5) 12:18 AM CDT (9/5)
Length of Visible Light 13h 47m
Length of Day
12h 52m
First Quarter, 61% of the Moon is Illuminated
Sep 5
First Quarter
Sep 12
Full
Sep 20
Last Quarter
Sep 27
New
Oct 3
First Quarter

Hourly Weather History & Observations

Time (CDT) Temp. Dew Point Humidity Pressure Visibility Wind Dir Wind Speed Gust Speed Precip Events Conditions
12:52 AM 57.9 °F 46.0 °F 65% 30.19 in 10.0 mi North 3.5 mph - N/A   Clear
1:52 AM 51.1 °F 45.0 °F 80% 30.19 in 10.0 mi Calm Calm - N/A   Clear
2:52 AM 48.0 °F 43.0 °F 83% 30.19 in 10.0 mi Calm Calm - N/A   Clear
3:52 AM 48.9 °F 44.1 °F 83% 30.19 in 10.0 mi Calm Calm - N/A   Clear
4:52 AM 48.0 °F 43.0 °F 83% 30.19 in 10.0 mi Calm Calm - N/A   Clear
5:52 AM 46.4 °F 42.8 °F 87% 30.21 in 10.0 mi Calm Calm - N/A   Clear
6:52 AM 46.0 °F 43.0 °F 89% 30.21 in 10.0 mi Calm Calm - N/A   Clear
7:52 AM 50.0 °F 46.0 °F 86% 30.23 in 10.0 mi Calm Calm - N/A   Clear
8:52 AM 57.0 °F 48.0 °F 72% 30.23 in 10.0 mi Calm Calm - N/A   Clear
9:52 AM 63.0 °F 45.0 °F 52% 30.24 in 10.0 mi East 8.1 mph - N/A   Clear
10:52 AM 66.0 °F 44.1 °F 45% 30.23 in 10.0 mi ENE 10.4 mph - N/A   Clear
11:52 AM 69.8 °F 41.0 °F 35% 30.22 in 10.0 mi ENE 11.5 mph 18.4 mph N/A   Clear
12:52 PM 71.1 °F 39.9 °F 32% 30.19 in 10.0 mi Variable 4.6 mph 16.1 mph N/A   Clear
1:52 PM 73.0 °F 39.9 °F 30% 30.17 in 10.0 mi ENE 10.4 mph 16.1 mph N/A   Clear
2:52 PM 73.9 °F 39.9 °F 29% 30.15 in 10.0 mi Variable 6.9 mph - N/A   Clear
3:52 PM 75.0 °F 39.9 °F 28% 30.12 in 10.0 mi Calm Calm - N/A   Clear
4:52 PM 75.0 °F 39.0 °F 27% 30.10 in 10.0 mi NE 9.2 mph - N/A   Clear
5:52 PM 73.9 °F 39.0 °F 28% 30.10 in 10.0 mi ENE 4.6 mph - N/A   Clear
6:52 PM 72.0 °F 41.0 °F 33% 30.09 in 10.0 mi ENE 6.9 mph - N/A   Clear
7:52 PM 66.0 °F 43.0 °F 43% 30.09 in 10.0 mi ENE 6.9 mph - N/A   Clear
8:52 PM 63.0 °F 45.0 °F 52% 30.10 in 10.0 mi East 5.8 mph - N/A   Clear
9:52 PM 59.0 °F 45.0 °F 60% 30.11 in 10.0 mi Calm Calm - N/A   Clear
10:52 PM 55.0 °F 45.0 °F 69% 30.13 in 10.0 mi Calm Calm - N/A   Clear
11:52 PM 51.1 °F 44.1 °F 77% 30.14 in 10.0 mi Calm Calm - N/A   Clear